Regional Weather Roundup
Issued by NWS Albany, NY

Home | Current Version | Previous Version | Graphics & Text | Print | Product List | Glossary Off
Versions: 1 2 3 4 5 6 7 8 9 10 11 12 13 14 15 16 17 18 19 20 21 22 23 24 25 26 27 28 29 30 31 32 33 34 35 36 37 38 39 40 41 42 43 44 45 46 47 48 49 50

000
ASUS41 KALY 281010
RWRALY

NEW YORK STATE HOURLY WEATHER ROUNDUP
NATIONAL WEATHER SERVICE ALBANY NY
500 AM EST SAT FEB 28 2015

NOTE: "FAIR" INDICATES FEW OR NO CLOUDS BELOW 12,000 FEET WITH NO
SIGNIFICANT WEATHER AND/OR NO OBSTRUCTIONS TO VISIBILITY.

NYZ032-033-038>043-046>054-057>066-NYZ062>081-281100-
EAST


CITY           SKY/WX    TMP DP  RH WIND       PRES   REMARKS
ALBANY         PTCLDY     6  -5  60 W5        30.72R WCI  -3
GLENS FALLS    CLEAR    -11 -18  71 CALM      30.70R
POUGHKEEPSIE   CLEAR     -4  -9  79 CALM      30.71R
MONTGOMERY     CLEAR     -3 -11  68 CALM      30.68R
WHITE PLAINS   CLEAR      6  -3  66 CALM      30.66R
ISLIP          CLEAR     15   1  53 N9        30.69R WCI   3
NEW YORK CITY  PTCLDY    16  -2  45 NW8       30.72R WCI   5
CENTRAL PARK   CLEAR     15  -4  42 VRB5      30.73R WCI   8
$$

NYZ005>009-017-018-044>046-055-056-281100-
CENTRAL


CITY           SKY/WX    TMP DP  RH WIND       PRES   REMARKS
FULTON         MOCLDY    -2  -7  79 E3        30.72R
SYRACUSE       PTCLDY   -27  -2 100 W6        30.72R WCI -44
ROME           CLOUDY    -1  -4  87 CALM      30.74R
ELMIRA         PTCLDY   -10 -15  78 SW8       30.70R WCI -26
BINGHAMTON     PTCLDY     0  -8  69 W5        30.59R WCI -10
MONTICELLO     CLEAR      1  -8  66 NW8       30.59R WCI -12
$$

NYZ026>034-041>043-281100-
NORTH


CITY           SKY/WX    TMP DP  RH WIND       PRES   REMARKS
WATERTOWN      CLEAR      4  -3  73 S6        30.70R WCI  -7
FORT DRUM      NOT AVBL
MASSENA        CLEAR      2  -6  69 SW9       30.68R WCI -13
SARANAC LAKE   MOCLDY    -6  -9  86 CALM      30.51R
PLATTSBURGH    CLEAR     10  -1  61 SW5       30.66R WCI   2
$$

NYZ001>004-010>016-019>021-281100-
WEST


CITY           SKY/WX    TMP DP  RH WIND       PRES   REMARKS
NIAGARA FALLS  CLEAR      2  -3  80 SW9       30.69R WCI -13
BUFFALO        CLEAR      1  -4  79 S7        30.69R WCI -12
DUNKIRK        PTCLDY     3  -5  69 S9        30.71R WCI -12
JAMESTOWN      PTCLDY    -2  -6  84 CALM      30.59R
WELLSVILLE     FAIR       0  -7  72 W3        30.56R
ROCHESTER      CLEAR      0  -6  76 SW7       30.71R WCI -13
PENN YAN       FAIR      -1  -8  72 SW7       30.68R WCI -14
$$

             KEY
       WCI = WIND CHILL INDEX
       VSB = VISIBILITY
       HX  = HEAT INDEX
$$



USA.gov is the U.S. government's official web portal to all federal, state and local government web resources and services.